QPF
0.00 0.00 0.00 0.01 0.03 0.03 0.02 0.03 0.02 0.00 0.01 0.01 0.02 0.00 0.00 0.00 0.01 0.03 0.03 0.03 0.01 0.01 0.01 0.00 0.00 0.00 0.00 0.00 0.00 0.00 0.00 0.00 0.00 0.00 0.01 0.01 0.02 0.03 0.04 0.05 0.06 0.06 0.06 0.06 0.07 0.11 0.07 0.07 0.06
0.00 0.00 0.00 0.01 0.02 0.03 0.03 0.02 0.01 0.01 0.00 0.00 0.00 0.00 0.00 0.00 0.00 0.01 0.02 0.02 0.00 0.01 0.00 0.00 0.00 0.00 0.00 0.01 0.00 0.00 0.00 0.00 0.00 0.00 0.01 0.01 0.02 0.03 0.04 0.04 0.05 0.07 0.07 0.07 0.07 0.10 0.07 0.06 0.06
0.00 0.00 0.00 0.01 0.02 0.03 0.03 0.01 0.01 0.01 0.00 0.00 0.00 0.00 0.00 0.00 0.01 0.01 0.02 0.01 0.00 0.00 0.00 0.00 0.00 0.00 0.00 0.01 0.01 0.01 0.00 0.00 0.00 0.00 0.01 0.01 0.02 0.03 0.03 0.05 0.06 0.08 0.09 0.11 0.10 0.09 0.07 0.06 0.05
0.00 0.00 0.00 0.01 0.02 0.01 0.01 0.01 0.01 0.01 0.01 0.01 0.01 0.00 0.01 0.01 0.01 0.01 0.01 0.01 0.01 0.01 0.01 0.01 0.01 0.01 0.01 0.01 0.01 0.01 0.00 0.00 0.01 0.00 0.01 0.01 0.01 0.02 0.03 0.10 0.20 0.19 0.16 0.14 0.09 0.07 0.07 0.05 0.05
0.00 0.00 0.01 0.03 0.02 0.01 0.01 0.00 0.01 0.01 0.01 0.01 0.01 0.01 0.01 0.01 0.02 0.02 0.02 0.02 0.03 0.03 0.04 0.02 0.02 0.01 0.01 0.01 0.02 0.02 0.00 0.00 0.01 0.01 0.01 0.01 0.01 0.01 0.02 0.06 0.18 0.22 0.17 0.10 0.06 0.05 0.05 0.04 0.04
0.00 0.01 0.02 0.04 0.02 0.01 0.00 0.00 0.01 0.01 0.01 0.02 0.02 0.02 0.03 0.02 0.02 0.03 0.03 0.02 0.03 0.07 0.11 0.04 0.02 0.02 0.02 0.02 0.02 0.02 0.01 0.01 0.01 0.01 0.02 0.01 0.01 0.02 0.02 0.05 0.11 0.17 0.12 0.08 0.06 0.05 0.05 0.04 0.05
0.00 0.01 0.02 0.03 0.02 0.01 0.00 0.00 0.01 0.01 0.00 0.01 0.01 0.04 0.04 0.03 0.02 0.03 0.03 0.03 0.04 0.07 0.16 0.06 0.02 0.02 0.03 0.03 0.02 0.02 0.01 0.01 0.01 0.01 0.02 0.02 0.02 0.02 0.03 0.06 0.10 0.17 0.18 0.14 0.09 0.06 0.06 0.05 0.07
0.00 0.00 0.01 0.02 0.01 0.01 0.00 0.00 0.01 0.01 0.01 0.01 0.02 0.05 0.04 0.02 0.02 0.02 0.02 0.06 0.05 0.05 0.12 0.10 0.03 0.02 0.02 0.02 0.02 0.02 0.02 0.02 0.02 0.02 0.01 0.02 0.03 0.03 0.04 0.06 0.10 0.16 0.19 0.17 0.13 0.11 0.10 0.10 0.14
0.00 0.00 0.01 0.01 0.01 0.01 0.00 0.00 0.01 0.01 0.02 0.03 0.03 0.02 0.02 0.01 0.02 0.02 0.02 0.04 0.04 0.03 0.05 0.05 0.03 0.03 0.02 0.01 0.02 0.03 0.03 0.04 0.03 0.03 0.03 0.03 0.02 0.02 0.03 0.06 0.11 0.15 0.16 0.15 0.14 0.14 0.14 0.17 0.17
0.00 0.00 0.00 0.00 0.01 0.01 0.00 0.01 0.01 0.01 0.02 0.04 0.03 0.02 0.03 0.01 0.02 0.02 0.03 0.02 0.03 0.03 0.04 0.03 0.03 0.03 0.02 0.01 0.02 0.02 0.04 0.05 0.04 0.03 0.03 0.02 0.02 0.02 0.03 0.06 0.09 0.11 0.10 0.11 0.13 0.14 0.15 0.15 0.12
0.00 0.00 0.00 0.00 0.01 0.00 0.00 0.00 0.01 0.01 0.03 0.05 0.03 0.02 0.03 0.03 0.03 0.03 0.03 0.03 0.05 0.06 0.05 0.04 0.04 0.03 0.02 0.02 0.05 0.04 0.03 0.05 0.06 0.05 0.03 0.02 0.02 0.03 0.04 0.05 0.06 0.07 0.08 0.07 0.09 0.10 0.10 0.08 0.07
0.00 0.00 0.00 0.00 0.00 0.00 0.00 0.00 0.00 0.01 0.02 0.03 0.02 0.01 0.02 0.03 0.02 0.03 0.03 0.04 0.07 0.10 0.07 0.06 0.05 0.03 0.02 0.01 0.02 0.03 0.03 0.03 0.05 0.05 0.04 0.04 0.03 0.03 0.05 0.05 0.06 0.07 0.08 0.08 0.08 0.08 0.08 0.08 0.07
0.00 0.00 0.00 0.00 0.00 0.00 0.00 0.00 0.00 0.01 0.02 0.04 0.02 0.02 0.01 0.02 0.02 0.03 0.03 0.03 0.06 0.06 0.04 0.04 0.03 0.02 0.01 0.01 0.01 0.01 0.02 0.02 0.03 0.04 0.05 0.06 0.05 0.04 0.05 0.06 0.08 0.09 0.08 0.11 0.09 0.08 0.08 0.08 0.08
0.00 0.00 0.00 0.00 0.00 0.00 0.00 0.00 0.01 0.01 0.01 0.03 0.02 0.02 0.02 0.02 0.03 0.06 0.06 0.04 0.05 0.03 0.02 0.06 0.04 0.01 0.01 0.01 0.01 0.01 0.01 0.01 0.02 0.02 0.04 0.04 0.05 0.06 0.05 0.05 0.06 0.06 0.05 0.08 0.06 0.06 0.07 0.08 0.08
0.00 0.00 0.00 0.00 0.00 0.00 0.00 0.00 0.00 0.00 0.01 0.02 0.01 0.02 0.03 0.04 0.04 0.05 0.04 0.04 0.06 0.04 0.03 0.04 0.02 0.01 0.01 0.01 0.01 0.01 0.01 0.01 0.01 0.01 0.03 0.04 0.05 0.05 0.04 0.05 0.06 0.06 0.06 0.08 0.07 0.06 0.08 0.08 0.08
0.00 0.00 0.00 0.00 0.00 0.00 0.00 0.01 0.01 0.01 0.00 0.01 0.02 0.04 0.06 0.06 0.06 0.05 0.04 0.05 0.06 0.05 0.04 0.02 0.01 0.01 0.01 0.02 0.02 0.01 0.01 0.02 0.02 0.01 0.01 0.02 0.04 0.04 0.06 0.06 0.07 0.08 0.09 0.09 0.08 0.08 0.09 0.08 0.07
0.00 0.00 0.00 0.00 0.00 0.00 0.00 0.01 0.01 0.01 0.01 0.02 0.02 0.02 0.04 0.07 0.06 0.05 0.05 0.05 0.05 0.05 0.05 0.03 0.03 0.03 0.03 0.02 0.03 0.02 0.02 0.02 0.01 0.01 0.01 0.01 0.02 0.03 0.05 0.07 0.09 0.11 0.10 0.08 0.08 0.08 0.08 0.07 0.05
0.00 0.00 0.00 0.00 0.00 0.00 0.00 0.01 0.02 0.01 0.02 0.03 0.04 0.04 0.03 0.04 0.04 0.03 0.04 0.05 0.06 0.08 0.11 0.07 0.05 0.04 0.03 0.02 0.03 0.03 0.02 0.02 0.01 0.01 0.01 0.01 0.01 0.01 0.02 0.03 0.05 0.07 0.08 0.09 0.09 0.09 0.08 0.06 0.05
0.00 0.01 0.01 0.00 0.00 0.00 0.01 0.02 0.04 0.04 0.02 0.03 0.04 0.04 0.03 0.03 0.03 0.03 0.02 0.03 0.07 0.11 0.09 0.09 0.06 0.04 0.04 0.03 0.02 0.03 0.03 0.03 0.02 0.02 0.02 0.02 0.01 0.02 0.02 0.03 0.04 0.05 0.07 0.08 0.07 0.07 0.07 0.05 0.05
0.00 0.00 0.00 0.00 0.00 0.00 0.02 0.02 0.04 0.05 0.02 0.02 0.03 0.04 0.06 0.06 0.03 0.02 0.02 0.02 0.03 0.06 0.10 0.11 0.07 0.04 0.03 0.03 0.02 0.02 0.03 0.03 0.03 0.03 0.03 0.03 0.02 0.02 0.03 0.05 0.05 0.04 0.05 0.06 0.06 0.05 0.06 0.05 0.04
0.00 0.00 0.00 0.00 0.00 0.00 0.01 0.02 0.04 0.05 0.02 0.02 0.03 0.06 0.08 0.07 0.04 0.02 0.02 0.02 0.02 0.02 0.02 0.03 0.03 0.03 0.03 0.02 0.02 0.02 0.02 0.03 0.05 0.05 0.04 0.04 0.04 0.04 0.05 0.06 0.07 0.05 0.05 0.06 0.05 0.04 0.04 0.05 0.04
0.00 0.00 0.00 0.00 0.00 0.01 0.01 0.03 0.04 0.04 0.03 0.03 0.04 0.06 0.09 0.06 0.04 0.03 0.02 0.01 0.01 0.01 0.01 0.02 0.02 0.02 0.02 0.02 0.02 0.02 0.02 0.02 0.04 0.05 0.04 0.04 0.06 0.07 0.08 0.08 0.08 0.07 0.07 0.07 0.05 0.05 0.04 0.04 0.03
0.00 0.00 0.00 0.00 0.00 0.00 0.01 0.03 0.05 0.06 0.04 0.04 0.05 0.09 0.09 0.05 0.04 0.03 0.02 0.02 0.02 0.02 0.01 0.01 0.02 0.02 0.02 0.02 0.02 0.02 0.02 0.02 0.03 0.04 0.04 0.04 0.05 0.07 0.09 0.11 0.10 0.07 0.08 0.09 0.06 0.05 0.05 0.05 0.04
0.00 0.00 0.00 0.00 0.00 0.00 0.01 0.02 0.05 0.06 0.06 0.05 0.06 0.06 0.04 0.03 0.03 0.02 0.03 0.03 0.02 0.01 0.01 0.02 0.02 0.02 0.02 0.02 0.02 0.03 0.03 0.03 0.03 0.04 0.05 0.05 0.06 0.09 0.11 0.14 0.12 0.10 0.11 0.09 0.07 0.05 0.05 0.04 0.03
0.00 0.00 0.00 0.01 0.01 0.01 0.01 0.01 0.03 0.05 0.05 0.05 0.06 0.07 0.07 0.04 0.03 0.02 0.03 0.02 0.02 0.02 0.01 0.02 0.03 0.03 0.03 0.03 0.03 0.03 0.04 0.04 0.03 0.04 0.05 0.06 0.07 0.08 0.10 0.11 0.11 0.10 0.11 0.09 0.07 0.06 0.04 0.03 0.03
0.00 0.01 0.01 0.01 0.00 0.01 0.01 0.02 0.04 0.04 0.04 0.03 0.05 0.05 0.04 0.04 0.03 0.04 0.04 0.04 0.03 0.02 0.02 0.02 0.02 0.02 0.03 0.03 0.04 0.05 0.05 0.05 0.05 0.04 0.04 0.06 0.07 0.09 0.10 0.10 0.09 0.08 0.08 0.08 0.07 0.06 0.04 0.03 0.03
0.00 0.00 0.00 0.00 0.00 0.01 0.01 0.03 0.04 0.05 0.04 0.03 0.03 0.02 0.03 0.03 0.04 0.05 0.05 0.04 0.03 0.02 0.02 0.01 0.01 0.02 0.03 0.05 0.06 0.06 0.06 0.06 0.07 0.06 0.06 0.06 0.08 0.08 0.06 0.06 0.06 0.07 0.08 0.08 0.06 0.05 0.04 0.04 0.03
0.00 0.00 0.00 0.01 0.01 0.01 0.03 0.04 0.04 0.05 0.05 0.05 0.05 0.04 0.03 0.04 0.05 0.05 0.04 0.03 0.03 0.03 0.02 0.01 0.01 0.01 0.02 0.03 0.03 0.04 0.03 0.04 0.05 0.05 0.05 0.06 0.06 0.04 0.04 0.03 0.05 0.07 0.07 0.07 0.07 0.04 0.03 0.03 0.03
0.00 0.00 0.00 0.01 0.01 0.02 0.04 0.07 0.04 0.03 0.04 0.06 0.05 0.04 0.04 0.06 0.07 0.06 0.05 0.05 0.05 0.03 0.02 0.02 0.02 0.02 0.02 0.02 0.02 0.02 0.02 0.02 0.04 0.04 0.04 0.04 0.03 0.03 0.03 0.03 0.03 0.05 0.06 0.06 0.05 0.04 0.03 0.02 0.03
0.01 0.01 0.01 0.01 0.01 0.03 0.03 0.06 0.04 0.03 0.03 0.03 0.03 0.04 0.06 0.07 0.09 0.08 0.07 0.06 0.04 0.03 0.04 0.05 0.04 0.03 0.05 0.07 0.06 0.03 0.02 0.02 0.03 0.04 0.05 0.04 0.03 0.03 0.02 0.02 0.02 0.03 0.04 0.05 0.05 0.04 0.03 0.04 0.03
MSLP
1005.81 1006.98 1008.35 1009.64 1010.59 1011.03 1010.86 1010.16 1009.08 1007.87 1006.79 1006.03 1005.71 1005.81 1006.22 1006.78 1007.29 1007.58 1007.59 1007.32 1006.85 1006.34 1005.90 1005.64 1005.61 1005.78 1006.06 1006.35 1006.57 1006.67 1006.64 1006.54 1006.44 1006.40 1006.48 1006.66 1006.93 1007.20 1007.44 1007.57 1007.61 1007.59 1007.57 1007.62 1007.81 1008.16 1008.66 1009.27 1009.92
1006.14 1007.49 1008.92 1010.15 1010.94 1011.13 1010.70 1009.72 1008.40 1007.00 1005.78 1004.92 1004.53 1004.58 1004.95 1005.47 1005.95 1006.25 1006.30 1006.12 1005.80 1005.44 1005.18 1005.10 1005.21 1005.48 1005.82 1006.15 1006.38 1006.49 1006.48 1006.41 1006.34 1006.34 1006.43 1006.62 1006.87 1007.11 1007.30 1007.39 1007.40 1007.37 1007.35 1007.43 1007.65 1008.03 1008.55 1009.18 1009.84
1006.68 1008.13 1009.56 1010.68 1011.28 1011.24 1010.56 1009.38 1007.89 1006.37 1005.07 1004.16 1003.71 1003.68 1003.96 1004.38 1004.77 1005.01 1005.05 1004.93 1004.72 1004.52 1004.44 1004.54 1004.81 1005.20 1005.62 1005.99 1006.25 1006.37 1006.37 1006.32 1006.27 1006.28 1006.38 1006.55 1006.76 1006.96 1007.09 1007.14 1007.12 1007.09 1007.10 1007.23 1007.50 1007.93 1008.50 1009.15 1009.82
1007.40 1008.88 1010.22 1011.18 1011.57 1011.32 1010.47 1009.15 1007.60 1006.06 1004.77 1003.85 1003.37 1003.26 1003.41 1003.67 1003.91 1004.03 1004.02 1003.90 1003.78 1003.72 1003.82 1004.08 1004.50 1005.01 1005.50 1005.91 1006.18 1006.30 1006.31 1006.25 1006.20 1006.21 1006.30 1006.44 1006.60 1006.74 1006.83 1006.84 1006.82 1006.81 1006.88 1007.07 1007.41 1007.91 1008.54 1009.22 1009.91
1008.21 1009.62 1010.81 1011.56 1011.75 1011.32 1010.36 1009.01 1007.49 1006.04 1004.83 1003.98 1003.49 1003.30 1003.32 1003.40 1003.46 1003.42 1003.31 1003.18 1003.10 1003.16 1003.40 1003.81 1004.36 1004.95 1005.49 1005.91 1006.17 1006.27 1006.26 1006.19 1006.13 1006.12 1006.18 1006.29 1006.40 1006.50 1006.55 1006.55 1006.54 1006.57 1006.70 1006.98 1007.41 1007.99 1008.67 1009.40 1010.10
1008.98 1010.23 1011.20 1011.72 1011.70 1011.14 1010.14 1008.85 1007.46 1006.18 1005.14 1004.40 1003.95 1003.71 1003.60 1003.51 1003.38 1003.18 1002.96 1002.80 1002.75 1002.89 1003.23 1003.75 1004.38 1005.02 1005.57 1005.97 1006.19 1006.24 1006.19 1006.09 1006.01 1005.98 1006.02 1006.10 1006.18 1006.24 1006.27 1006.27 1006.28 1006.37 1006.57 1006.94 1007.46 1008.12 1008.87 1009.63 1010.36
1009.58 1010.60 1011.30 1011.56 1011.35 1010.69 1009.70 1008.54 1007.36 1006.31 1005.49 1004.91 1004.53 1004.28 1004.08 1003.85 1003.56 1003.23 1002.92 1002.72 1002.70 1002.89 1003.30 1003.88 1004.54 1005.17 1005.69 1006.03 1006.18 1006.18 1006.08 1005.95 1005.85 1005.81 1005.83 1005.89 1005.96 1006.00 1006.01 1006.01 1006.05 1006.19 1006.46 1006.91 1007.52 1008.26 1009.06 1009.86 1010.60
1009.90 1010.64 1011.05 1011.06 1010.66 1009.94 1009.01 1008.00 1007.05 1006.27 1005.68 1005.28 1005.01 1004.79 1004.54 1004.22 1003.83 1003.41 1003.06 1002.85 1002.86 1003.09 1003.54 1004.14 1004.78 1005.36 1005.80 1006.06 1006.13 1006.06 1005.92 1005.76 1005.65 1005.61 1005.63 1005.68 1005.73 1005.76 1005.76 1005.77 1005.83 1006.00 1006.34 1006.85 1007.53 1008.34 1009.19 1010.04 1010.80
1009.92 1010.37 1010.49 1010.25 1009.70 1008.94 1008.07 1007.22 1006.50 1005.96 1005.60 1005.38 1005.22 1005.05 1004.80 1004.45 1004.04 1003.61 1003.27 1003.09 1003.14 1003.41 1003.87 1004.45 1005.04 1005.54 1005.88 1006.04 1006.03 1005.90 1005.71 1005.55 1005.44 1005.41 1005.44 1005.49 1005.53 1005.54 1005.53 1005.53 1005.61 1005.80 1006.18 1006.74 1007.47 1008.33 1009.24 1010.12 1010.92
1009.69 1009.87 1009.72 1009.28 1008.60 1007.80 1006.99 1006.28 1005.74 1005.39 1005.21 1005.13 1005.08 1004.98 1004.77 1004.47 1004.10 1003.73 1003.46 1003.36 1003.46 1003.77 1004.23 1004.76 1005.27 1005.67 1005.91 1005.97 1005.89 1005.71 1005.51 1005.35 1005.26 1005.25 1005.28 1005.33 1005.36 1005.35 1005.32 1005.31 1005.38 1005.59 1005.98 1006.57 1007.35 1008.25 1009.21 1010.14 1010.99
1009.34 1009.29 1008.93 1008.31 1007.53 1006.70 1005.93 1005.31 1004.88 1004.65 1004.58 1004.59 1004.61 1004.58 1004.45 1004.24 1003.98 1003.74 1003.60 1003.60 1003.79 1004.13 1004.59 1005.07 1005.49 1005.79 1005.93 1005.91 1005.77 1005.57 1005.37 1005.22 1005.15 1005.15 1005.18 1005.22 1005.22 1005.19 1005.13 1005.10 1005.16 1005.37 1005.78 1006.40 1007.21 1008.15 1009.16 1010.16 1011.06
1009.01 1008.79 1008.27 1007.54 1006.68 1005.83 1005.06 1004.46 1004.07 1003.87 1003.82 1003.87 1003.93 1003.95 1003.92 1003.83 1003.72 1003.65 1003.68 1003.82 1004.10 1004.49 1004.93 1005.35 1005.69 1005.90 1005.96 1005.89 1005.72 1005.52 1005.34 1005.21 1005.15 1005.15 1005.16 1005.17 1005.13 1005.06 1004.97 1004.92 1004.97 1005.19 1005.62 1006.26 1007.11 1008.10 1009.17 1010.22 1011.21
1008.82 1008.50 1007.89 1007.08 1006.18 1005.29 1004.51 1003.88 1003.45 1003.20 1003.10 1003.11 1003.16 1003.22 1003.28 1003.33 1003.40 1003.53 1003.73 1004.03 1004.40 1004.83 1005.26 1005.63 1005.91 1006.05 1006.06 1005.96 1005.79 1005.61 1005.45 1005.34 1005.28 1005.25 1005.23 1005.18 1005.10 1004.98 1004.86 1004.80 1004.85 1005.09 1005.55 1006.23 1007.12 1008.16 1009.28 1010.40 1011.46
1008.86 1008.48 1007.83 1007.00 1006.08 1005.17 1004.34 1003.64 1003.11 1002.75 1002.54 1002.45 1002.45 1002.52 1002.65 1002.84 1003.09 1003.40 1003.78 1004.22 1004.69 1005.15 1005.57 1005.91 1006.13 1006.23 1006.22 1006.13 1006.00 1005.85 1005.72 1005.61 1005.54 1005.46 1005.38 1005.26 1005.11 1004.94 1004.80 1004.75 1004.83 1005.11 1005.61 1006.34 1007.27 1008.36 1009.54 1010.72 1011.85
1009.08 1008.68 1008.04 1007.22 1006.31 1005.39 1004.52 1003.74 1003.08 1002.56 1002.20 1001.98 1001.90 1001.95 1002.13 1002.43 1002.83 1003.31 1003.84 1004.39 1004.93 1005.42 1005.83 1006.14 1006.34 1006.44 1006.45 1006.40 1006.31 1006.22 1006.11 1006.01 1005.89 1005.76 1005.59 1005.38 1005.16 1004.96 1004.81 1004.78 1004.92 1005.26 1005.82 1006.61 1007.58 1008.71 1009.92 1011.15 1012.34
1009.39 1009.00 1008.38 1007.62 1006.76 1005.85 1004.95 1004.09 1003.30 1002.63 1002.10 1001.73 1001.55 1001.56 1001.76 1002.13 1002.64 1003.24 1003.88 1004.52 1005.10 1005.60 1006.00 1006.30 1006.50 1006.62 1006.69 1006.71 1006.70 1006.66 1006.59 1006.48 1006.32 1006.11 1005.85 1005.56 1005.28 1005.05 1004.91 1004.93 1005.13 1005.54 1006.18 1007.01 1008.02 1009.17 1010.39 1011.63 1012.84
1009.65 1009.27 1008.73 1008.05 1007.27 1006.43 1005.53 1004.62 1003.73 1002.91 1002.22 1001.71 1001.41 1001.35 1001.54 1001.94 1002.51 1003.17 1003.87 1004.55 1005.15 1005.65 1006.04 1006.34 1006.56 1006.74 1006.88 1007.00 1007.09 1007.13 1007.10 1006.99 1006.79 1006.50 1006.16 1005.80 1005.46 1005.22 1005.11 1005.19 1005.47 1005.96 1006.65 1007.53 1008.55 1009.68 1010.88 1012.10 1013.30
1009.72 1009.40 1008.95 1008.40 1007.75 1007.01 1006.18 1005.27 1004.32 1003.39 1002.56 1001.91 1001.49 1001.34 1001.47 1001.85 1002.42 1003.09 1003.80 1004.47 1005.05 1005.53 1005.91 1006.23 1006.49 1006.74 1006.99 1007.23 1007.43 1007.56 1007.59 1007.49 1007.26 1006.93 1006.52 1006.11 1005.75 1005.51 1005.45 1005.59 1005.95 1006.50 1007.24 1008.12 1009.12 1010.20 1011.33 1012.49 1013.65
1009.56 1009.31 1009.00 1008.63 1008.17 1007.59 1006.87 1006.01 1005.05 1004.06 1003.12 1002.34 1001.79 1001.53 1001.56 1001.87 1002.37 1003.00 1003.66 1004.29 1004.83 1005.28 1005.65 1005.98 1006.30 1006.65 1007.01 1007.37 1007.70 1007.94 1008.04 1007.98 1007.75 1007.39 1006.95 1006.52 1006.16 1005.96 1005.94 1006.15 1006.57 1007.17 1007.92 1008.78 1009.71 1010.70 1011.73 1012.78 1013.86
1009.18 1009.05 1008.93 1008.78 1008.55 1008.19 1007.63 1006.88 1005.96 1004.93 1003.91 1003.01 1002.33 1001.93 1001.83 1002.01 1002.41 1002.94 1003.51 1004.06 1004.54 1004.95 1005.31 1005.66 1006.04 1006.48 1006.96 1007.45 1007.90 1008.25 1008.44 1008.44 1008.24 1007.90 1007.48 1007.06 1006.73 1006.57 1006.61 1006.87 1007.34 1007.96 1008.69 1009.49 1010.32 1011.18 1012.06 1012.99 1013.95
1008.69 1008.72 1008.83 1008.95 1009.00 1008.89 1008.54 1007.92 1007.07 1006.03 1004.95 1003.93 1003.11 1002.54 1002.28 1002.31 1002.56 1002.96 1003.42 1003.87 1004.28 1004.65 1005.00 1005.37 1005.80 1006.32 1006.90 1007.51 1008.08 1008.54 1008.82 1008.89 1008.76 1008.46 1008.09 1007.72 1007.45 1007.34 1007.44 1007.75 1008.24 1008.85 1009.53 1010.24 1010.95 1011.66 1012.38 1013.14 1013.98
1008.26 1008.50 1008.86 1009.27 1009.61 1009.76 1009.62 1009.15 1008.37 1007.35 1006.20 1005.08 1004.10 1003.37 1002.93 1002.78 1002.87 1003.13 1003.47 1003.82 1004.16 1004.48 1004.82 1005.20 1005.68 1006.25 1006.91 1007.61 1008.27 1008.81 1009.19 1009.34 1009.29 1009.07 1008.77 1008.48 1008.28 1008.24 1008.39 1008.74 1009.23 1009.82 1010.44 1011.04 1011.61 1012.16 1012.71 1013.32 1014.01
1008.05 1008.50 1009.12 1009.80 1010.41 1010.80 1010.85 1010.52 1009.81 1008.78 1007.58 1006.35 1005.23 1004.33 1003.72 1003.40 1003.34 1003.46 1003.69 1003.96 1004.25 1004.54 1004.86 1005.25 1005.74 1006.35 1007.05 1007.79 1008.50 1009.11 1009.55 1009.78 1009.81 1009.69 1009.48 1009.28 1009.17 1009.20 1009.41 1009.78 1010.27 1010.81 1011.36 1011.86 1012.31 1012.71 1013.11 1013.55 1014.10
1008.16 1008.80 1009.64 1010.55 1011.37 1011.94 1012.14 1011.91 1011.24 1010.20 1008.95 1007.62 1006.38 1005.34 1004.58 1004.12 1003.94 1003.96 1004.10 1004.32 1004.57 1004.84 1005.15 1005.54 1006.03 1006.63 1007.32 1008.06 1008.79 1009.42 1009.90 1010.19 1010.30 1010.26 1010.16 1010.06 1010.03 1010.14 1010.40 1010.79 1011.27 1011.78 1012.26 1012.68 1013.02 1013.30 1013.57 1013.88 1014.29
1008.62 1009.41 1010.39 1011.44 1012.38 1013.05 1013.33 1013.14 1012.48 1011.43 1010.13 1008.73 1007.41 1006.27 1005.42 1004.86 1004.60 1004.55 1004.66 1004.85 1005.09 1005.35 1005.66 1006.03 1006.50 1007.06 1007.71 1008.41 1009.10 1009.71 1010.20 1010.53 1010.70 1010.75 1010.75 1010.74 1010.81 1010.98 1011.28 1011.70 1012.17 1012.66 1013.09 1013.45 1013.72 1013.91 1014.09 1014.29 1014.59
1009.39 1010.23 1011.27 1012.34 1013.30 1013.97 1014.24 1014.04 1013.37 1012.30 1010.98 1009.55 1008.19 1007.02 1006.12 1005.54 1005.24 1005.18 1005.28 1005.48 1005.73 1006.00 1006.30 1006.65 1007.07 1007.58 1008.15 1008.77 1009.39 1009.96 1010.43 1010.77 1011.00 1011.12 1011.20 1011.29 1011.44 1011.68 1012.03 1012.46 1012.94 1013.40 1013.82 1014.14 1014.37 1014.52 1014.64 1014.77 1014.98
1010.35 1011.15 1012.12 1013.11 1013.98 1014.56 1014.76 1014.50 1013.80 1012.72 1011.41 1010.01 1008.67 1007.52 1006.65 1006.09 1005.81 1005.77 1005.90 1006.12 1006.38 1006.67 1006.96 1007.28 1007.64 1008.07 1008.55 1009.07 1009.61 1010.11 1010.55 1010.90 1011.16 1011.36 1011.52 1011.70 1011.93 1012.23 1012.62 1013.07 1013.55 1014.01 1014.41 1014.73 1014.95 1015.08 1015.17 1015.26 1015.41
1011.37 1012.05 1012.85 1013.66 1014.34 1014.76 1014.82 1014.49 1013.76 1012.70 1011.44 1010.12 1008.87 1007.81 1007.02 1006.51 1006.29 1006.29 1006.45 1006.69 1006.97 1007.25 1007.52 1007.80 1008.10 1008.44 1008.82 1009.25 1009.70 1010.15 1010.56 1010.92 1011.22 1011.48 1011.73 1011.99 1012.30 1012.66 1013.08 1013.55 1014.03 1014.49 1014.88 1015.20 1015.42 1015.56 1015.65 1015.72 1015.82
1012.33 1012.81 1013.38 1013.94 1014.38 1014.59 1014.51 1014.09 1013.35 1012.35 1011.20 1010.01 1008.90 1007.98 1007.29 1006.88 1006.71 1006.74 1006.91 1007.15 1007.41 1007.67 1007.90 1008.12 1008.35 1008.62 1008.92 1009.27 1009.65 1010.06 1010.46 1010.84 1011.20 1011.54 1011.88 1012.22 1012.60 1013.01 1013.46 1013.94 1014.41 1014.86 1015.24 1015.55 1015.78 1015.93 1016.03 1016.10 1016.18
1013.16 1013.42 1013.73 1014.02 1014.20 1014.21 1013.99 1013.52 1012.81 1011.90 1010.89 1009.88 1008.95 1008.18 1007.62 1007.27 1007.14 1007.18 1007.32 1007.51 1007.72 1007.91 1008.08 1008.23 1008.40 1008.59 1008.83 1009.13 1009.48 1009.87 1010.29 1010.73 1011.16 1011.59 1012.01 1012.45 1012.89 1013.35 1013.82 1014.29 1014.74 1015.16 1015.51 1015.81 1016.02 1016.18 1016.28 1016.35 1016.42
Thickness
5832 5832 5829 5817 5794 5771 5769 5786 5802 5808 5814 5824 5826 5818 5806 5797 5786 5774 5797 5803 5799 5796 5793 5790 5788 5786 5784 5782 5780 5778 5777 5775 5774 5773 5772 5772 5771 5770 5769 5769 5768 5768 5767 5766 5766 5765 5764 5763 5762
5832 5831 5821 5802 5775 5754 5766 5792 5800 5810 5821 5828 5826 5819 5808 5799 5805 5799 5799 5800 5799 5796 5793 5790 5788 5786 5783 5781 5779 5777 5775 5774 5772 5771 5771 5770 5769 5768 5767 5768 5769 5768 5766 5765 5765 5764 5762 5761 5760
5833 5829 5806 5787 5770 5759 5774 5798 5806 5817 5828 5828 5819 5818 5808 5800 5804 5803 5804 5802 5799 5796 5793 5790 5787 5785 5783 5780 5778 5776 5774 5772 5771 5770 5769 5768 5767 5766 5766 5767 5768 5767 5766 5765 5764 5762 5761 5760 5759
5827 5813 5799 5777 5771 5782 5794 5805 5814 5814 5821 5825 5818 5806 5809 5815 5812 5809 5807 5803 5798 5794 5791 5789 5786 5784 5782 5780 5777 5775 5773 5771 5769 5768 5767 5766 5765 5765 5765 5765 5766 5765 5764 5763 5763 5761 5759 5758 5757
5820 5799 5779 5767 5776 5793 5808 5817 5819 5813 5814 5816 5815 5799 5798 5813 5816 5811 5806 5802 5798 5793 5790 5788 5785 5783 5781 5779 5777 5775 5772 5770 5768 5766 5765 5764 5764 5763 5763 5762 5762 5762 5762 5762 5761 5759 5757 5756 5755
5801 5787 5765 5759 5777 5798 5811 5821 5820 5813 5811 5814 5811 5797 5794 5810 5810 5806 5805 5801 5798 5793 5790 5787 5784 5782 5780 5778 5776 5774 5771 5769 5767 5765 5764 5762 5761 5761 5761 5760 5760 5760 5760 5760 5759 5757 5755 5754 5753
5793 5778 5767 5772 5780 5792 5812 5824 5817 5810 5808 5812 5815 5796 5794 5803 5810 5808 5804 5800 5796 5792 5789 5786 5784 5781 5779 5776 5774 5772 5770 5768 5766 5764 5762 5761 5760 5759 5759 5758 5758 5758 5758 5757 5756 5755 5753 5753 5751
5803 5782 5772 5774 5780 5790 5815 5822 5822 5816 5810 5821 5818 5796 5790 5803 5810 5807 5801 5796 5793 5790 5787 5784 5782 5780 5778 5775 5773 5770 5768 5766 5764 5762 5761 5759 5758 5757 5757 5756 5756 5756 5755 5755 5754 5753 5752 5751 5750
5809 5774 5762 5775 5784 5796 5815 5814 5817 5824 5816 5815 5816 5810 5810 5812 5808 5800 5794 5790 5787 5786 5785 5783 5780 5777 5775 5773 5771 5769 5766 5764 5762 5761 5759 5758 5756 5755 5754 5753 5753 5753 5753 5752 5751 5750 5749 5748 5747
5795 5767 5777 5796 5803 5805 5812 5812 5813 5810 5804 5803 5806 5810 5812 5809 5802 5795 5789 5785 5783 5782 5782 5782 5780 5777 5774 5772 5770 5768 5765 5762 5760 5759 5758 5756 5755 5753 5752 5751 5750 5750 5750 5749 5748 5748 5746 5745 5744
5796 5785 5797 5808 5815 5814 5810 5812 5816 5804 5793 5800 5800 5801 5804 5802 5797 5794 5790 5787 5785 5784 5782 5781 5779 5776 5773 5771 5769 5766 5763 5761 5759 5758 5756 5755 5753 5752 5750 5749 5748 5747 5747 5746 5746 5745 5743 5743 5742
5797 5802 5808 5812 5819 5814 5811 5812 5809 5807 5806 5815 5814 5809 5804 5799 5796 5794 5790 5787 5785 5783 5781 5780 5778 5775 5773 5771 5768 5765 5762 5760 5758 5757 5755 5754 5752 5750 5748 5747 5745 5745 5744 5743 5743 5742 5741 5740 5739
5796 5800 5811 5817 5817 5815 5814 5809 5807 5806 5816 5818 5814 5807 5801 5798 5796 5795 5794 5789 5786 5782 5780 5779 5777 5774 5772 5770 5767 5764 5762 5759 5758 5756 5754 5753 5751 5749 5747 5745 5743 5742 5741 5740 5740 5739 5738 5737 5737
5799 5803 5808 5813 5814 5815 5807 5805 5804 5804 5814 5811 5806 5800 5799 5797 5795 5793 5790 5786 5783 5781 5779 5778 5775 5774 5771 5768 5766 5763 5761 5759 5756 5755 5753 5752 5750 5748 5745 5743 5741 5740 5739 5738 5737 5736 5735 5734 5734
5803 5794 5796 5805 5809 5811 5806 5790 5796 5806 5809 5804 5801 5799 5796 5794 5794 5791 5789 5785 5783 5780 5778 5776 5774 5772 5769 5766 5764 5762 5760 5758 5756 5754 5752 5751 5749 5747 5744 5742 5740 5739 5737 5736 5735 5734 5733 5732 5732
5791 5779 5771 5791 5803 5806 5793 5770 5794 5805 5802 5795 5796 5796 5792 5788 5790 5791 5789 5784 5781 5778 5775 5774 5774 5770 5767 5765 5763 5760 5759 5756 5754 5752 5750 5749 5747 5746 5743 5740 5739 5738 5736 5735 5733 5732 5729 5728 5727
5766 5757 5761 5778 5799 5798 5786 5772 5792 5803 5798 5791 5791 5790 5787 5784 5785 5787 5787 5784 5780 5776 5772 5769 5768 5766 5764 5762 5760 5758 5756 5754 5752 5750 5748 5747 5745 5744 5742 5739 5737 5737 5735 5733 5732 5729 5727 5724 5724
5748 5754 5759 5766 5786 5787 5777 5774 5787 5796 5795 5789 5788 5785 5783 5781 5781 5784 5783 5780 5778 5775 5771 5766 5763 5761 5759 5757 5755 5753 5751 5751 5750 5748 5746 5745 5743 5742 5740 5738 5736 5734 5732 5730 5729 5726 5725 5724 5723
5762 5758 5755 5768 5788 5779 5772 5770 5778 5787 5786 5784 5782 5780 5778 5777 5780 5781 5780 5777 5774 5770 5767 5763 5758 5756 5753 5751 5749 5747 5745 5745 5745 5745 5744 5742 5741 5739 5737 5735 5733 5732 5729 5728 5727 5724 5722 5720 5720
5761 5753 5755 5767 5782 5776 5766 5765 5774 5780 5781 5782 5778 5775 5774 5771 5770 5771 5772 5771 5768 5765 5762 5759 5755 5752 5751 5749 5747 5746 5744 5743 5742 5741 5740 5739 5737 5736 5735 5733 5730 5729 5727 5725 5724 5722 5719 5717 5718
5759 5754 5757 5758 5769 5770 5762 5750 5758 5770 5777 5779 5778 5776 5773 5770 5764 5764 5765 5764 5763 5760 5758 5756 5752 5750 5748 5747 5745 5743 5740 5738 5735 5735 5735 5735 5735 5733 5732 5730 5728 5726 5724 5722 5721 5720 5717 5713 5714
5749 5770 5769 5763 5749 5737 5748 5721 5741 5753 5761 5767 5769 5769 5768 5768 5765 5762 5760 5758 5757 5755 5754 5752 5748 5746 5745 5743 5740 5737 5733 5730 5730 5731 5731 5731 5731 5730 5729 5727 5725 5723 5722 5720 5719 5718 5716 5713 5710
5762 5775 5770 5763 5746 5733 5736 5722 5727 5743 5743 5752 5760 5764 5764 5765 5762 5758 5756 5754 5753 5751 5749 5746 5743 5740 5739 5738 5736 5733 5730 5727 5727 5727 5726 5726 5725 5725 5725 5723 5722 5720 5719 5718 5716 5715 5713 5712 5709
5774 5765 5756 5744 5728 5711 5725 5719 5716 5728 5734 5743 5751 5755 5755 5756 5754 5751 5749 5748 5746 5745 5742 5739 5736 5734 5733 5732 5731 5729 5726 5723 5722 5721 5720 5720 5719 5720 5720 5719 5718 5717 5716 5715 5714 5713 5711 5709 5708
5760 5730 5707 5704 5695 5701 5724 5716 5713 5734 5743 5744 5744 5746 5747 5748 5745 5742 5739 5738 5737 5736 5734 5733 5730 5728 5728 5727 5726 5725 5723 5720 5718 5717 5716 5715 5714 5714 5714 5715 5714 5713 5712 5712 5711 5710 5708 5707 5705
5746 5730 5700 5690 5688 5698 5714 5706 5716 5738 5746 5746 5745 5743 5742 5739 5737 5733 5732 5731 5730 5728 5726 5725 5723 5721 5721 5721 5720 5719 5718 5717 5715 5714 5713 5712 5711 5711 5711 5711 5711 5709 5709 5709 5707 5705 5704 5703 5702
5742 5731 5729 5707 5703 5692 5696 5705 5718 5732 5734 5736 5737 5736 5733 5732 5730 5727 5725 5724 5722 5720 5719 5718 5716 5715 5715 5715 5714 5713 5712 5711 5710 5709 5709 5708 5707 5708 5707 5707 5707 5706 5705 5705 5703 5701 5700 5699 5698
5749 5739 5714 5699 5684 5678 5688 5693 5696 5712 5719 5725 5726 5726 5727 5725 5722 5720 5717 5716 5715 5714 5713 5711 5710 5708 5708 5708 5708 5708 5707 5706 5705 5704 5703 5702 5702 5702 5702 5702 5702 5701 5701 5701 5699 5697 5696 5695 5694
5734 5727 5712 5695 5691 5676 5670 5681 5714 5714 5718 5719 5721 5721 5720 5717 5715 5712 5711 5710 5708 5707 5706 5704 5703 5702 5701 5701 5701 5700 5700 5700 5699 5698 5698 5698 5697 5697 5697 5697 5697 5696 5696 5696 5695 5693 5692 5690 5689
5735 5725 5709 5689 5685 5681 5672 5680 5722 5718 5718 5717 5717 5717 5715 5713 5710 5707 5706 5703 5701 5700 5699 5697 5696 5695 5694 5694 5694 5693 5693 5692 5692 5692 5692 5692 5692 5693 5693 5692 5692 5692 5691 5691 5690 5688 5688 5686 5684